Regional Weather Roundup
Issued by NWS Sioux Falls, SD

Home | Current Version | Previous Version | Graphics & Text | Print | Product List | Glossary Off
Versions: 1 2 3 4 5 6 7 8 9 10 11 12 13 14 15 16 17 18 19 20 21 22 23 24 25 26 27 28 29 30 31 32 33 34 35 36 37 38 39 40 41 42 43 44 45 46 47 48 49 50

214
ASUS43 KFSD 180502
RWRFSD

WEATHER ROUNDUP FOR SE SOUTH DAKOTA/SW MINNESOTA/NW IOWA
NATIONAL WEATHER SERVICE SIOUX FALLS SD
1100 PM CST TUE JAN 17 2017

NOTE: "FAIR" INDICATES FEW OR NO CLOUDS BELOW 12,000 FEET WITH NO
SIGNIFICANT WEATHER AND OR OBSTRUCTIONS TO VISIBILITY.


SDZ038>040-050-052>070-180600-
SOUTHEAST SOUTH DAKOTA

CITY           SKY/WX    TMP DP  RH WIND       PRES   REMARKS
BROOKINGS      CLOUDY    23  22  96 S12       29.90F WCI  12
CHAMBERLAIN    CLOUDY    20  19  94 CALM      29.88F
HURON          CLOUDY    25  25 100 S12       29.88F WCI  14
MADISON          N/A     23  23 100 S10         N/A  WCI  12
MITCHELL       CLOUDY    29  27  92 S9        29.92F WCI  20
SIOUX FALLS    CLOUDY    26  25  96 S7        29.96F WCI  18
WINNER         FAIR      34  21  59 SW10      29.89S WCI  26
YANKTON        CLOUDY    27  25  93 SE8       29.97F WCI  18
$$

MNZ071-072-080-081-089-090-097-098-180600-
SOUTHWEST MINNESOTA

CITY           SKY/WX    TMP DP  RH WIND       PRES   REMARKS
FAIRMONT       CLOUDY    26  25  96 SW13      30.01S FOG     WCI  15
JACKSON        CLOUDY    27  25  93 SW8       29.99S WCI  18
LUVERNE        CLOUDY    21  18  86 S3        29.99S FOG
MARSHALL       CLOUDY    30  26  85 SW15      29.92F WCI  19
MONTEVIDEO     CLOUDY    21  19  93 SW9       29.92F WCI  11
PIPESTONE      CLOUDY    27  27 100 S13       29.94F WCI  16
REDWOOD FALLS  CLOUDY    19  16  88 S7        29.96S WCI  10
TRACY          CLOUDY    30  26  88 SW23      29.94S WCI  16
WINDOM         CLOUDY    27  25  93 S6        29.97S WCI  20
WORTHINGTON    CLOUDY    26  25  96 SW16      29.97F WCI  14
$$

IAZ001>003-012>014-020>022-031-032-NEZ013-014-SDZ071-180600-
NORTHWEST IOWA

CITY           SKY/WX    TMP DP  RH WIND       PRES   REMARKS
CHEROKEE       CLOUDY    25  25 100 S3        30.04S
DENISON        CLOUDY    28  28 100 S6        30.05R FOG     WCI  22
ESTHERVILLE    CLOUDY    25  25 100 SW15      30.01R FOG     WCI  13
LE MARS        CLOUDY    28  27  93 S7        30.03F WCI  21
ORANGE CITY    CLOUDY    27  27 100 S5        30.00F WCI  21
SHELDON        CLOUDY    27  27 100 S8        29.99S WCI  18
SIOUX CITY     CLOUDY    25  23  92 SE8       30.04R FOG     WCI  16
SPENCER        CLOUDY    25  23  92 S8        30.02S FOG     WCI  16
STORM LAKE     CLOUDY    27  27 100 SW13      30.03S WCI  16
$$

ABBREVIATIONS USED IN REMARKS
   TC - TEMPERATURE IN CELSIUS
  WCI - WIND CHILL INDEX
   HX - HEAT INDEX
  VSB - VISIBILITY





USA.gov is the U.S. government's official web portal to all federal, state and local government web resources and services.